Time,TemperatureF,DewpointF,PressureIn,WindDirection,WindDirectionDegrees,WindSpeedMPH,WindSpeedGustMPH,Humidity,HourlyPrecipIn,Conditions,Clouds,dailyrainin,SoftwareType,DateUTC
2013-07-10 00:22:00,88.0,71.0,29.90,SSW,197,6.0,17.0,58,0.00,,,0.00,,2013-07-10 05:22:00,
2013-07-10 00:32:00,88.0,71.0,29.90,SSW,197,6.0,17.0,58,0.00,,,0.00,,2013-07-10 05:32:00,
2013-07-10 00:42:00,88.0,71.0,29.90,SSW,197,6.0,17.0,58,0.00,,,0.00,,2013-07-10 05:42:00,
2013-07-10 00:53:00,88.0,71.0,29.90,SSW,197,6.0,17.0,58,0.00,,,0.00,,2013-07-10 05:53:00,
2013-07-10 01:01:00,88.0,71.0,29.90,SSW,197,6.0,17.0,58,0.00,,,0.00,,2013-07-10 06:01:00,
2013-07-10 02:22:00,86.0,68.0,29.91,North,356,1.0,5.0,55,0.00,,,0.00,,2013-07-10 07:22:00,
2013-07-10 02:33:00,86.0,68.0,29.91,North,356,1.0,5.0,55,0.00,,,0.00,,2013-07-10 07:33:00,
2013-07-10 02:43:00,86.0,68.0,29.91,North,356,1.0,5.0,55,0.00,,,0.00,,2013-07-10 07:43:00,
2013-07-10 02:53:00,86.0,68.0,29.91,North,356,1.0,5.0,55,0.00,,,0.00,,2013-07-10 07:53:00,
2013-07-10 03:01:00,86.0,68.0,29.91,North,356,1.0,5.0,55,0.00,,,0.00,,2013-07-10 08:01:00,
2013-07-10 04:22:00,82.0,67.0,29.92,WNW,282,1.0,3.0,60,0.00,,,0.00,,2013-07-10 09:22:00,
2013-07-10 04:33:00,82.0,67.0,29.92,WNW,282,1.0,3.0,60,0.00,,,0.00,,2013-07-10 09:33:00,
2013-07-10 04:43:00,82.0,67.0,29.92,WNW,282,1.0,3.0,60,0.00,,,0.00,,2013-07-10 09:43:00,
2013-07-10 04:53:00,82.0,67.0,29.92,WNW,282,1.0,3.0,60,0.00,,,0.00,,2013-07-10 09:53:00,
2013-07-10 05:01:00,82.0,67.0,29.92,WNW,282,1.0,3.0,60,0.00,,,0.00,,2013-07-10 10:01:00,
2013-07-10 06:02:00,79.0,66.0,29.94,NW,316,0.0,1.0,65,0.00,,,0.00,,2013-07-10 11:02:00,
2013-07-10 06:23:00,79.0,66.0,29.94,NW,316,0.0,1.0,65,0.00,,,0.00,,2013-07-10 11:23:00,
2013-07-10 06:33:00,79.0,66.0,29.94,NW,316,0.0,1.0,65,0.00,,,0.00,,2013-07-10 11:33:00,
2013-07-10 06:43:00,79.0,66.0,29.94,NW,316,0.0,1.0,65,0.00,,,0.00,,2013-07-10 11:43:00,
2013-07-10 06:52:00,79.0,66.0,29.94,NW,316,0.0,1.0,65,0.00,,,0.00,,2013-07-10 11:52:00,
2013-07-10 08:22:00,84.0,69.0,29.97,North,8,0.0,4.0,60,0.00,,,0.00,,2013-07-10 13:22:00,
2013-07-10 08:32:00,84.0,69.0,29.97,North,8,0.0,4.0,60,0.00,,,0.00,,2013-07-10 13:32:00,
2013-07-10 08:43:00,84.0,69.0,29.97,North,8,0.0,4.0,60,0.00,,,0.00,,2013-07-10 13:43:00,
2013-07-10 08:52:00,84.0,69.0,29.97,North,8,0.0,4.0,60,0.00,,,0.00,,2013-07-10 13:52:00,
2013-07-10 09:01:00,84.0,69.0,29.97,North,8,0.0,4.0,60,0.00,,,0.00,,2013-07-10 14:01:00,
2013-07-10 10:22:00,85.0,72.0,30.00,NW,326,4.0,10.0,66,0.00,,,0.00,,2013-07-10 15:22:00,
2013-07-10 10:34:00,85.0,72.0,30.00,NW,326,4.0,10.0,66,0.00,,,0.00,,2013-07-10 15:34:00,
2013-07-10 10:43:00,85.0,72.0,30.00,NW,326,4.0,10.0,66,0.00,,,0.00,,2013-07-10 15:43:00,
2013-07-10 10:52:00,85.0,72.0,30.00,NW,326,4.0,10.0,66,0.00,,,0.00,,2013-07-10 15:52:00,
2013-07-10 11:01:00,85.0,72.0,30.00,NW,326,4.0,10.0,66,0.00,,,0.00,,2013-07-10 16:01:00,
2013-07-10 12:02:00,86.0,71.0,30.02,ENE,63,10.0,16.0,62,0.00,,,0.00,,2013-07-10 17:02:00,
2013-07-10 12:23:00,86.0,71.0,30.02,ENE,63,10.0,16.0,62,0.00,,,0.00,,2013-07-10 17:23:00,
2013-07-10 12:32:00,86.0,71.0,30.02,ENE,63,10.0,16.0,62,0.00,,,0.00,,2013-07-10 17:32:00,
2013-07-10 12:43:00,86.0,71.0,30.02,ENE,63,10.0,16.0,62,0.00,,,0.00,,2013-07-10 17:43:00,
2013-07-10 12:53:00,86.0,71.0,30.02,ENE,63,10.0,16.0,62,0.00,,,0.00,,2013-07-10 17:53:00,
2013-07-10 14:22:00,87.0,70.0,30.01,NE,34,13.0,16.0,58,0.00,,,0.00,,2013-07-10 19:22:00,
2013-07-10 14:32:00,87.0,70.0,30.01,NE,34,13.0,16.0,58,0.00,,,0.00,,2013-07-10 19:32:00,
2013-07-10 14:42:00,87.0,70.0,30.01,NE,34,13.0,16.0,58,0.00,,,0.00,,2013-07-10 19:42:00,
2013-07-10 14:53:00,87.0,70.0,30.01,NE,34,13.0,16.0,58,0.00,,,0.00,,2013-07-10 19:53:00,
2013-07-10 15:01:00,87.0,70.0,30.01,NE,34,13.0,16.0,58,0.00,,,0.00,,2013-07-10 20:01:00,
2013-07-10 16:22:00,91.0,58.0,30.00,NE,45,14.0,18.0,33,0.00,,,0.00,,2013-07-10 21:22:00,
2013-07-10 16:32:00,91.0,58.0,30.00,NE,45,14.0,18.0,33,0.00,,,0.00,,2013-07-10 21:32:00,
2013-07-10 16:42:00,91.0,58.0,30.00,NE,45,14.0,18.0,33,0.00,,,0.00,,2013-07-10 21:42:00,
2013-07-10 16:52:00,91.0,58.0,30.00,NE,45,14.0,18.0,33,0.00,,,0.00,,2013-07-10 21:52:00,
2013-07-10 17:01:00,91.0,58.0,30.00,NE,45,14.0,18.0,33,0.00,,,0.00,,2013-07-10 22:01:00,
2013-07-10 18:22:00,91.0,60.0,29.96,NE,34,7.0,13.0,36,0.00,,,0.00,,2013-07-10 23:22:00,
2013-07-10 18:32:00,91.0,60.0,29.96,NE,34,7.0,13.0,36,0.00,,,0.00,,2013-07-10 23:32:00,
2013-07-10 18:43:00,91.0,60.0,29.96,NE,34,7.0,13.0,36,0.00,,,0.00,,2013-07-10 23:43:00,
2013-07-10 18:52:00,91.0,60.0,29.96,NE,34,7.0,13.0,36,0.00,,,0.00,,2013-07-10 23:52:00,
2013-07-10 19:01:00,91.0,60.0,29.96,NE,34,7.0,13.0,36,0.00,,,0.00,,2013-07-11 00:01:00,
2013-07-10 20:32:00,88.0,63.0,29.96,NE,34,7.0,10.0,43,0.00,,,0.00,,2013-07-11 01:32:00,
2013-07-10 20:43:00,88.0,63.0,29.96,NE,34,7.0,10.0,43,0.00,,,0.00,,2013-07-11 01:43:00,
2013-07-10 20:52:00,88.0,63.0,29.96,NE,34,7.0,10.0,43,0.00,,,0.00,,2013-07-11 01:52:00,
2013-07-10 21:02:00,88.0,63.0,29.96,NE,34,7.0,10.0,43,0.00,,,0.00,,2013-07-11 02:02:00,
2013-07-10 21:11:00,88.0,63.0,29.96,NE,34,7.0,10.0,43,0.00,,,0.00,,2013-07-11 02:11:00,
2013-07-10 22:22:00,82.0,61.0,29.99,NNE,28,1.0,3.0,50,0.00,,,0.00,,2013-07-11 03:22:00,
2013-07-10 22:33:00,82.0,61.0,29.99,NNE,28,1.0,3.0,50,0.00,,,0.00,,2013-07-11 03:33:00,
2013-07-10 22:42:00,82.0,61.0,29.99,NNE,28,1.0,3.0,50,0.00,,,0.00,,2013-07-11 03:42:00,
2013-07-10 22:53:00,82.0,61.0,29.99,NNE,28,1.0,3.0,50,0.00,,,0.00,,2013-07-11 03:53:00,
2013-07-10 23:01:00,82.0,61.0,29.99,NNE,28,1.0,3.0,50,0.00,,,0.00,,2013-07-11 04:01:00,